Chesapeake, VA

12:32 PM EDT on August 31, 2016 (GMT -0400)
Hampton Roads Executive

Weather History for KPVG - March, 2014

Change the Weather History Date:

Saturday, March 29, 2014

  Actual Average (KNGU) Record (KNGU)
Temperature  
Mean Temperature 64 °F -  
Max Temperature 69 °F 61 °F 84 °F (1998)
Min Temperature 60 °F 44 °F 32 °F (2015)
Growing Degree Days 14 (Base 50)    
Moisture  
Dew Point 60 °F    
Average Humidity 89    
Maximum Humidity 94    
Minimum Humidity 73    
Precipitation  
Precipitation 0.81 in - - ()
Sea Level Pressure  
Sea Level Pressure 29.94 in    
Wind  
Wind Speed 9 mph (South)    
Max Wind Speed 18 mph    
Max Gust Speed 28 mph    
Visibility 9 miles    
Events      
Averages and records for this station are not official NWS values.
T = Trace of Precipitation, MM = Missing Value Source: NWS Daily Summary

Daily Weather History Graph

Daily Weather History Graph

Search for Another Location

Airport or City:

Trip Planner

Search our weather history database for the weather conditions in past years. The results will help you decide how hot, cold, wet, or windy it might be!

Date:

Astronomy

Mar. 29, 2014 Rise Set
Actual Time 6:56 AM EDT 7:25 PM EDT
Civil Twilight 6:30 AM EDT 7:51 PM EDT
Nautical Twilight 5:59 AM EDT 8:22 PM EDT
Astronomical Twilight 5:28 AM EDT 8:53 PM EDT
Moon 6:01 AM EDT (3/29) 6:29 PM EDT (3/29)
Length of Visible Light 13h 21m
Length of Day
12h 29m
Waning Crescent, 2% of the Moon is Illuminated
Mar 29
Waning Crescent
Mar 30
New
Apr 7
First Quarter
Apr 15
Full
Apr 22
Last Quarter

Hourly Weather History & Observations

Time (EDT) Temp. Dew Point Humidity Pressure Visibility Wind Dir Wind Speed Gust Speed Precip Events Conditions
12:15 AM 60.8 °F 57.2 °F 88% 30.18 in 10.0 mi South 6.9 mph - N/A   Overcast
12:35 AM 60.8 °F 57.2 °F 88% 30.18 in 10.0 mi South 6.9 mph - N/A   Overcast
12:55 AM 60.8 °F 57.2 °F 88% 30.18 in 10.0 mi South 9.2 mph - N/A   Overcast
1:15 AM 60.8 °F 57.2 °F 88% 30.18 in 8.0 mi South 6.9 mph - 0.01 in   Overcast
1:35 AM 60.8 °F 57.2 °F 88% 30.17 in 7.0 mi South 8.1 mph - 0.01 in   Overcast
1:55 AM 60.8 °F 57.2 °F 88% 30.17 in 7.0 mi South 9.2 mph - 0.03 in   Overcast
2:15 AM 60.8 °F 57.2 °F 88% 30.16 in 5.0 mi South 8.1 mph - 0.08 in   Overcast
2:35 AM 60.8 °F 57.2 °F 88% 30.15 in 4.0 mi SSE 4.6 mph - 0.16 in   Overcast
2:55 AM 60.8 °F 57.2 °F 88% 30.14 in 6.0 mi SE 3.5 mph - 0.20 in   Overcast
3:15 AM 60.8 °F 57.2 °F 88% 30.13 in 6.0 mi SSE 5.8 mph - 0.05 in   Overcast
3:35 AM 60.8 °F 57.2 °F 88% 30.13 in 7.0 mi South 4.6 mph - 0.13 in   Overcast
3:55 AM 60.8 °F 57.2 °F 88% 30.12 in 9.0 mi South 6.9 mph - 0.16 in   Overcast
4:15 AM 60.8 °F 57.2 °F 88% 30.11 in 7.0 mi South 6.9 mph - 0.02 in   Overcast
4:35 AM 60.8 °F 57.2 °F 88% 30.11 in 7.0 mi SSE 6.9 mph - 0.06 in   Overcast
4:55 AM 60.8 °F 57.2 °F 88% 30.10 in 9.0 mi SSE 9.2 mph - 0.08 in   Overcast
5:15 AM 60.8 °F 57.2 °F 88% 30.09 in 10.0 mi SSE 9.2 mph - 0.01 in   Overcast
5:35 AM 60.8 °F 57.2 °F 88% 30.08 in 10.0 mi SSE 10.4 mph - 0.01 in   Overcast
5:55 AM 60.8 °F 57.2 °F 88% 30.08 in 9.0 mi SSE 9.2 mph - 0.02 in   Overcast
6:15 AM 60.8 °F 57.2 °F 88% 30.08 in 10.0 mi South 12.7 mph 18.4 mph N/A   Mostly Cloudy
6:35 AM 60.8 °F 57.2 °F 88% 30.08 in 10.0 mi South 11.5 mph - N/A   Mostly Cloudy
6:55 AM 60.8 °F 57.2 °F 88% 30.08 in 10.0 mi South 9.2 mph 19.6 mph 0.01 in   Overcast
7:15 AM 60.8 °F 57.2 °F 88% 30.08 in 5.0 mi South 9.2 mph - 0.03 in   Overcast
7:35 AM 60.8 °F 57.2 °F 88% 30.09 in 6.0 mi South 6.9 mph - 0.06 in   Overcast
7:55 AM 60.8 °F 57.2 °F 88% 30.09 in 7.0 mi South 6.9 mph - 0.08 in   Overcast
8:15 AM 60.8 °F 57.2 °F 88% 30.09 in 6.0 mi South 8.1 mph - 0.01 in   Overcast
8:35 AM 60.8 °F 57.2 °F 88% 30.09 in 6.0 mi South 6.9 mph - 0.03 in   Overcast
8:55 AM 60.8 °F 57.2 °F 88% 30.08 in 8.0 mi SSE 10.4 mph - 0.04 in   Overcast
9:15 AM 60.8 °F 57.2 °F 88% 30.08 in 8.0 mi South 8.1 mph - 0.01 in   Overcast
9:35 AM 60.8 °F 57.2 °F 88% 30.07 in 7.0 mi South 8.1 mph - 0.02 in   Overcast
9:55 AM 60.8 °F 59.0 °F 94% 30.07 in 8.0 mi South 6.9 mph - 0.03 in   Overcast
10:15 AM 60.8 °F 59.0 °F 94% 30.06 in 8.0 mi SSE 8.1 mph - 0.01 in   Overcast
10:35 AM 62.6 °F 60.8 °F 94% 30.05 in 9.0 mi South 8.1 mph - 0.01 in   Mostly Cloudy
10:55 AM 62.6 °F 60.8 °F 94% 30.04 in 8.0 mi South 6.9 mph - 0.01 in   Mostly Cloudy
11:15 AM 62.6 °F 60.8 °F 94% 30.03 in 9.0 mi SSE 8.1 mph - N/A   Mostly Cloudy
11:35 AM 62.6 °F 60.8 °F 94% 30.02 in 9.0 mi South 10.4 mph - N/A   Mostly Cloudy
11:55 AM 64.4 °F 62.6 °F 94% 30.01 in 10.0 mi South 9.2 mph 17.3 mph N/A   Mostly Cloudy
12:15 PM 66.2 °F 62.6 °F 88% 29.99 in 10.0 mi South 8.1 mph 19.6 mph N/A   Mostly Cloudy
12:35 PM 66.2 °F 62.6 °F 88% 29.97 in 10.0 mi South 8.1 mph - N/A   Mostly Cloudy
12:55 PM 69.8 °F 62.6 °F 78% 29.96 in 10.0 mi South 11.5 mph 19.6 mph N/A   Mostly Cloudy
1:15 PM 69.8 °F 62.6 °F 78% 29.94 in 10.0 mi South 11.5 mph 20.7 mph N/A   Overcast
1:35 PM 69.8 °F 62.6 °F 78% 29.92 in 10.0 mi SSE 11.5 mph 19.6 mph N/A   Overcast
1:55 PM 69.8 °F 62.6 °F 78% 29.90 in 10.0 mi SSE 16.1 mph 24.2 mph N/A   Overcast
2:15 PM 69.8 °F 62.6 °F 78% 29.88 in 10.0 mi South 15.0 mph 20.7 mph N/A   Overcast
2:35 PM 69.8 °F 60.8 °F 73% 29.87 in 10.0 mi South 18.4 mph 27.6 mph N/A   Overcast
2:55 PM 66.2 °F 62.6 °F 88% 29.86 in 8.0 mi South 11.5 mph 19.6 mph 0.01 in   Mostly Cloudy
3:15 PM 66.2 °F 62.6 °F 88% 29.84 in 10.0 mi SSE 12.7 mph - N/A   Overcast
3:35 PM 66.2 °F 62.6 °F 88% 29.83 in 8.0 mi South 12.7 mph 23.0 mph 0.01 in   Mostly Cloudy
3:55 PM 64.4 °F 62.6 °F 94% 29.83 in 6.0 mi South 15.0 mph 21.9 mph 0.05 in   Overcast
4:15 PM 64.4 °F 62.6 °F 94% 29.82 in 10.0 mi South 12.7 mph 18.4 mph 0.02 in   Overcast
4:35 PM 64.4 °F 60.8 °F 88% 29.80 in 10.0 mi SSE 9.2 mph 21.9 mph 0.02 in   Overcast
4:55 PM 64.4 °F 60.8 °F 88% 29.75 in 8.0 mi SE 13.8 mph 20.7 mph 0.06 in   Overcast
5:15 PM 64.4 °F 60.8 °F 88% 29.78 in 10.0 mi South 9.2 mph 17.3 mph N/A   Mostly Cloudy
5:35 PM 64.4 °F 60.8 °F 88% 29.76 in 10.0 mi South 13.8 mph 26.5 mph N/A   Overcast
5:55 PM 64.4 °F 60.8 °F 88% 29.76 in 10.0 mi SSE 16.1 mph 21.9 mph N/A   Overcast
6:15 PM 64.4 °F 60.8 °F 88% 29.75 in 6.0 mi SSE 17.3 mph 23.0 mph 0.01 in   Overcast
6:35 PM 62.6 °F 60.8 °F 94% 29.75 in 3.0 mi South 13.8 mph 20.7 mph 0.02 in   Overcast
6:55 PM 62.6 °F 60.8 °F 94% 29.73 in 10.0 mi SSE 11.5 mph 18.4 mph 0.03 in   Overcast
7:15 PM 62.6 °F 60.8 °F 94% 29.72 in 8.0 mi SSE 11.5 mph 21.9 mph N/A   Overcast
7:35 PM 62.6 °F 60.8 °F 94% 29.71 in 9.0 mi South 11.5 mph 17.3 mph N/A   Overcast
7:55 PM 62.6 °F 60.8 °F 94% 29.70 in 6.0 mi SSE 11.5 mph - N/A   Overcast
8:15 PM 62.6 °F 60.8 °F 94% 29.70 in 10.0 mi South 13.8 mph 20.7 mph N/A   Overcast
8:35 PM 64.4 °F 62.6 °F 94% 29.69 in 9.0 mi South 11.5 mph 17.3 mph N/A   Overcast
8:55 PM 64.4 °F 62.6 °F 94% 29.68 in 10.0 mi South 9.2 mph 16.1 mph N/A   Overcast
9:15 PM 64.4 °F 62.6 °F 94% 29.68 in 10.0 mi South 9.2 mph 17.3 mph N/A   Overcast
9:35 PM 64.4 °F 62.6 °F 94% 29.67 in 10.0 mi South 10.4 mph - N/A   Overcast
9:55 PM 64.4 °F 62.6 °F 94% 29.67 in 10.0 mi South 8.1 mph 16.1 mph N/A   Overcast
10:15 PM 64.4 °F 62.6 °F 94% 29.66 in 10.0 mi South 8.1 mph 17.3 mph N/A   Overcast
10:35 PM 64.4 °F 62.6 °F 94% 29.65 in 10.0 mi South 9.2 mph - N/A   Mostly Cloudy
10:55 PM 64.4 °F 62.6 °F 94% 29.65 in 10.0 mi South 6.9 mph - N/A   Overcast
11:15 PM 64.4 °F 62.6 °F 94% 29.63 in 10.0 mi South 6.9 mph - N/A   Overcast
11:35 PM 64.4 °F 62.6 °F 94% 29.61 in 10.0 mi South 6.9 mph - N/A   Overcast
11:55 PM 64.4 °F 62.6 °F 94% 29.60 in 10.0 mi South 6.9 mph - N/A   Overcast